KNJM

Details ICAO KNJM
Name BOGUE MCALF
Region United States
Timezone America/New_York (UTC-4.0)
Plans Departing 0
Arriving 0
Stats Elevation 21 ft / 6 m (AMSL)
Location 34.690134° -77.029019°
Runways 1
Magnetic Variation 10.041° W
Sunrise 2018-05-27 09:59:31 UTC / 2018-05-27 05:59:31 Local
Sunset 2018-05-28 00:13:57 UTC / 2018-05-27 20:13:57 Local
Advertisement - Login to hide

Runways

ID Width Length Bearing (true) Bearing (mag) Surface Threshold Offset Overrun Length
05 96 ft / 29 m 3,999 ft / 1,219 m 40.74° 50.78° Dirt 0 ft / 0 m 150 ft / 46 m
23 96 ft / 29 m 3,999 ft / 1,219 m 220.75° 230.79° Dirt 0 ft / 0 m 150 ft / 46 m

Map

Weather


0- 5 10 15 20 25 30 35+ Temperature / ° C

Clouds and Precipitation
Forecast for 2018-05-28 00:00 UTC. Updated an hour ago

Ground ~20,000 ft ~40,000 ft Winds

METAR

KNJM 272357Z AUTO 20007KT 10SM CLR 25/24 A3003 RMK AO2 SLP171 T02500239 55000

TAF

Not found

Frequencies

Unicom 126.45 MHz CTAF
Approach 119.35 MHz CHERRY POINT APP/DEP
Tower 126.45 MHz TWR
Approach 124.10 MHz CHERRY POINT APP/DEP
Warning: Do not use this data for real-world aviation or navigation. No guarantee of current accuracy is given.